Temperature
16 16 17 17 17 17 17 17 17 17 17 16 16 16 16 17 17 17 17 17 17 17 17 17 17 17 17 17 17 17 17 18 18 18 18 18 18 18 18 18 18 17 18
16 16 17 16 16 16 16 16 16 16 16 16 16 16 16 16 16 16 16 17 17 17 17 17 17 17 17 17 17 17 17 17 17 18 18 18 18 18 18 18 18 18 18
16 16 16 16 16 16 16 16 16 16 16 16 16 16 16 16 16 16 16 16 16 16 16 16 16 17 17 17 17 17 17 17 17 17 17 17 17 18 18 18 18 18 18
16 16 16 16 16 16 16 16 16 16 16 16 16 16 16 16 16 16 16 16 16 16 16 16 16 16 16 17 17 17 17 17 17 17 17 17 17 17 18 18 18 18 18
16 16 16 16 16 16 16 16 16 15 15 15 15 15 15 15 16 16 16 16 16 16 16 16 16 16 16 16 17 17 17 17 17 17 17 17 17 17 17 17 18 18 18
16 16 16 16 16 16 16 16 15 15 15 15 15 15 15 15 15 15 15 16 16 16 16 16 16 16 16 16 16 16 17 17 17 16 16 16 17 17 17 17 17 18 18
16 16 16 16 16 16 16 15 15 15 15 15 15 15 15 15 15 15 15 16 16 16 16 16 16 16 16 16 16 17 17 17 16 16 16 16 17 17 17 17 17 17 17
16 16 16 16 16 16 16 15 15 15 15 15 15 15 15 15 15 15 15 15 16 16 16 16 16 16 16 16 16 16 17 16 16 16 16 16 17 17 17 17 17 17 17
16 16 16 16 16 16 16 16 16 15 15 15 15 15 15 15 15 15 15 15 15 16 16 16 16 16 16 16 16 16 16 16 16 16 16 16 17 17 17 17 17 17 17
16 16 16 16 16 16 16 16 16 15 15 15 15 15 15 15 15 15 15 15 15 15 16 16 16 16 16 16 16 16 16 16 16 16 16 16 16 17 17 17 17 17 17
16 16 16 16 16 16 16 16 15 15 15 15 15 15 15 15 15 15 15 16 16 16 16 15 16 16 16 16 16 16 16 16 16 16 16 16 16 16 17 17 17 17 17
17 17 17 16 16 16 16 15 15 15 15 15 15 15 15 15 15 15 15 15 15 15 15 15 16 16 16 16 16 16 16 16 16 16 16 16 16 16 17 17 17 17 17
17 17 17 17 16 16 16 16 15 15 15 15 15 15 15 15 15 15 15 15 15 15 15 15 15 15 16 16 16 16 16 16 16 16 16 16 16 16 16 17 17 17 17
17 17 17 17 17 16 16 16 15 15 15 15 15 15 15 15 15 15 15 15 15 15 15 15 15 15 16 16 16 16 16 16 16 16 16 16 16 16 16 16 17 17 17
17 17 17 16 17 16 16 16 16 15 15 15 15 15 15 15 15 15 15 15 15 15 15 15 15 15 15 15 16 16 16 15 15 15 15 16 16 16 16 16 16 16 16
17 17 17 16 16 16 16 16 16 15 15 15 15 15 15 15 15 15 15 15 15 15 15 15 15 15 15 15 15 15 15 15 15 15 15 15 16 16 16 16 16 16 16
18 17 17 16 16 16 16 16 16 15 15 15 15 15 15 15 15 15 15 15 15 15 15 15 15 15 15 15 15 15 15 15 15 15 15 15 15 15 16 16 16 16 16
18 17 17 16 16 16 16 16 16 15 15 15 15 15 15 15 15 15 15 15 15 15 15 15 15 15 15 15 15 15 15 15 15 15 15 15 15 15 15 15 16 16 16
18 17 17 16 16 16 16 16 15 15 15 15 15 15 15 15 15 15 15 15 15 15 15 15 15 15 15 15 15 15 15 15 15 15 15 15 15 15 15 15 15 16 16
18 17 17 16 16 16 16 16 15 15 15 15 15 15 15 15 15 15 15 15 15 15 15 15 15 15 15 15 15 15 14 14 14 15 14 15 15 15 15 15 15 15 15
17 17 17 17 16 16 16 16 15 15 15 15 15 15 15 15 15 15 15 15 15 15 15 15 15 15 15 15 15 14 14 14 14 14 14 14 14 14 14 14 15 15 15
17 17 17 17 16 16 16 16 15 15 15 15 15 15 15 15 15 15 15 15 15 15 15 15 15 15 15 15 15 15 15 14 14 14 14 14 14 14 14 14 14 14 14
18 17 17 17 16 16 16 16 16 15 15 15 15 15 15 15 15 15 15 15 15 15 15 15 15 14 15 15 15 15 16 15 14 14 14 14 14 14 14 14 14 14 14
18 17 17 17 17 16 16 16 16 15 15 15 15 15 15 15 15 15 15 15 15 15 15 15 15 15 14 15 15 15 15 15 15 14 14 14 14 14 14 14 14 14 14
18 18 17 17 17 17 16 16 16 16 15 15 15 15 15 15 15 15 15 15 15 15 15 15 15 15 14 15 15 15 15 15 15 15 14 13 13 13 13 13 14 14 14
18 18 17 17 17 17 16 16 16 16 16 15 15 15 15 15 15 15 15 15 15 15 15 15 15 15 15 15 15 15 14 15 15 14 14 14 13 13 13 13 13 13 13
Wind_Speed
5 7 9 9 10 11 12 12 12 12 11 11 11 11 10 10 9 9 9 8 8 8 8 8 7 6 6 6 5 5 5 5 5 5 5 6 6 6 6 5 3 5 6
7 8 9 10 10 11 12 12 12 12 11 11 11 10 10 9 9 9 8 8 8 8 8 7 7 6 6 5 5 4 5 5 5 5 4 5 6 6 6 6 6 6 6
8 9 10 10 11 11 11 11 11 11 11 10 10 10 9 9 8 8 8 7 7 7 7 6 6 6 5 5 5 5 5 5 5 3 1 3 6 6 6 6 5 6 5
9 9 11 11 11 11 11 11 11 10 10 10 9 9 8 8 8 8 7 7 7 7 6 6 6 6 6 5 5 5 5 5 4 0 1 4 4 8 6 6 6 6 6
9 10 11 10 10 10 10 10 10 9 9 9 9 8 8 8 7 7 7 7 7 6 6 6 5 5 5 5 5 5 5 5 2 0 4 4 5 7 6 6 6 6 6
9 10 11 9 10 9 9 9 9 9 8 8 8 8 7 7 7 7 6 6 6 6 5 5 5 5 5 5 5 5 4 3 1 4 4 4 5 7 6 6 5 5 5
9 10 11 9 8 8 9 9 9 8 8 8 8 7 7 7 7 6 5 5 5 4 4 4 4 5 5 5 5 5 4 2 2 4 3 4 6 7 6 5 5 5 5
9 9 10 9 8 8 8 9 8 8 8 8 8 7 7 7 6 6 6 5 5 4 4 4 4 5 5 5 5 5 4 3 3 4 4 5 7 6 6 6 6 5 5
7 7 7 8 9 8 8 8 8 8 8 8 8 7 7 7 7 6 6 6 5 5 5 5 5 6 6 6 6 5 4 3 3 4 5 6 7 6 6 6 5 5 5
7 6 7 7 6 6 7 8 8 8 8 8 8 8 5 4 5 5 5 7 6 6 7 7 7 7 7 7 6 5 2 1 4 5 5 8 7 6 6 6 5 5 5
6 6 6 6 6 5 6 6 6 7 6 4 6 5 2 4 5 5 10 9 8 8 8 7 7 7 6 7 6 3 1 4 6 5 7 9 7 7 7 6 6 6 6
7 6 6 5 5 5 5 5 5 6 5 6 6 6 5 5 5 5 7 7 7 6 7 7 5 4 2 6 6 3 4 6 5 7 9 10 8 8 8 8 7 8 7
6 6 6 5 5 5 5 5 5 5 4 5 6 6 5 4 4 4 4 5 5 3 5 6 4 6 6 6 6 6 7 6 6 7 11 11 10 9 9 9 8 9 9
7 6 5 5 5 5 5 5 4 4 4 5 5 6 5 4 4 5 4 5 4 5 4 5 5 7 7 8 8 8 8 7 7 7 11 13 12 11 10 10 10 10 10
6 6 6 5 5 6 6 4 5 5 5 6 5 5 6 4 4 4 5 4 5 5 5 5 5 7 7 8 8 8 8 9 8 8 10 15 15 13 12 12 11 11 11
7 7 6 5 5 5 5 4 5 5 5 6 6 6 6 6 5 4 5 5 5 5 5 5 6 6 6 7 8 8 8 9 9 9 9 11 15 15 14 13 13 13 12
8 7 7 5 5 5 5 5 5 5 5 6 6 6 7 6 5 4 4 4 5 5 5 6 7 6 6 7 8 8 8 9 9 10 10 9 10 14 16 16 15 15 14
8 7 7 4 4 4 4 4 5 5 5 5 5 6 6 6 6 5 4 4 4 5 5 5 5 5 7 7 7 7 7 7 9 9 9 10 10 10 14 17 17 16 16
7 7 6 5 5 5 4 4 5 6 5 5 6 6 6 7 6 5 5 4 5 4 4 4 5 6 7 7 7 7 7 7 8 9 10 11 11 10 10 13 15 17 17
7 7 7 6 5 5 4 4 4 5 5 5 6 6 7 6 6 6 5 5 5 4 4 5 6 6 6 6 8 8 8 7 7 8 9 9 10 11 11 11 10 12 16
7 7 7 6 6 4 3 3 3 4 4 5 6 7 6 6 6 6 4 5 4 5 5 5 6 7 6 6 6 7 7 9 8 7 8 8 9 11 11 11 10 9 10
8 7 7 6 6 5 3 3 3 3 4 4 5 6 6 6 6 5 5 4 4 4 4 5 5 4 4 2 2 3 3 5 6 7 7 7 8 8 9 11 11 11 11
8 8 7 7 6 5 5 4 4 4 3 4 4 5 6 7 7 6 6 5 4 3 4 3 3 3 3 3 3 1 1 2 3 5 7 7 7 7 8 10 11 12 12
9 8 8 7 7 6 5 4 4 3 3 4 3 4 5 6 6 6 6 6 5 4 4 3 3 2 2 2 2 3 3 2 1 3 4 6 7 8 8 8 9 11 12
10 9 8 8 7 6 5 4 3 3 3 3 3 4 4 5 6 6 6 5 5 5 5 4 3 2 1 1 1 2 3 2 1 2 3 3 5 6 7 8 8 10 11
9 9 9 8 7 6 6 5 4 4 4 4 4 4 3 4 4 5 5 5 5 5 5 4 4 4 3 3 2 2 2 2 2 2 3 3 3 4 6 6 7 9 10
Wind_Direction
90 88 89 92 93 89 85 84 83 83 83 83 82 81 79 78 78 77 77 74 71 70 71 71 68 65 67 68 63 65 71 74 74 73 77 76 71 63 61 58 60 90 73
101 96 93 91 91 89 87 85 83 82 80 79 78 76 74 74 75 74 73 71 70 68 67 68 69 65 64 64 61 62 70 74 73 75 82 98 84 69 62 53 37 53 64
106 103 103 93 92 89 88 87 84 81 78 76 73 72 70 70 69 69 69 66 65 63 62 63 66 63 62 67 66 64 67 69 71 76 125 103 95 81 65 59 58 60 65
107 103 96 95 92 90 88 86 82 78 73 69 68 67 66 66 64 65 66 62 61 59 59 59 62 59 59 63 67 63 61 66 63 332 127 78 78 82 68 62 62 62 65
107 103 100 96 90 89 87 83 79 74 69 66 65 64 63 62 60 59 59 58 56 57 61 63 60 55 56 60 66 64 62 71 68 342 73 75 75 76 70 64 63 63 60
110 104 99 93 89 87 84 80 76 69 64 62 61 60 58 57 56 53 52 56 56 54 56 61 60 58 59 65 71 68 65 66 193 79 80 84 84 79 73 68 64 62 59
110 104 101 94 90 85 80 76 71 65 60 57 54 55 55 51 51 48 48 54 54 53 54 58 61 58 65 76 77 71 62 19 71 85 84 82 78 71 70 69 63 57 58
108 105 105 105 93 84 79 73 67 61 57 55 52 52 51 47 46 46 44 46 48 53 57 65 68 66 72 79 80 74 56 336 103 87 85 83 73 71 74 71 62 54 50
109 108 108 109 108 102 84 69 62 58 56 55 55 54 52 50 48 46 42 44 53 57 60 70 75 75 78 83 82 74 65 23 71 83 86 80 76 72 74 67 55 50 46
114 110 107 103 97 94 93 80 64 60 57 59 60 54 54 78 76 55 57 57 60 66 69 75 77 77 80 80 79 75 70 159 75 80 72 76 72 71 72 64 56 47 38
117 112 107 100 88 82 79 81 81 80 64 71 77 67 36 51 58 68 55 56 62 71 73 75 80 85 96 98 84 83 107 83 80 68 62 61 63 69 66 61 54 42 34
123 116 110 101 94 87 80 83 70 70 62 49 46 46 44 51 50 55 84 71 68 79 93 84 100 127 133 101 106 124 86 79 75 72 63 54 61 66 64 60 53 44 42
120 115 110 104 94 85 84 74 65 64 60 56 47 47 42 51 60 59 67 89 84 91 87 102 113 83 84 80 84 84 73 74 69 67 59 53 57 59 61 58 54 50 50
121 116 112 108 100 88 81 76 70 64 56 52 44 40 42 47 48 55 58 58 66 69 68 78 80 84 86 84 83 82 80 72 66 67 61 54 56 58 59 58 58 54 50
130 127 117 110 97 91 81 72 70 61 50 61 46 38 41 44 48 56 64 59 64 71 85 83 83 85 82 78 76 76 75 72 69 68 70 61 56 57 56 55 55 52 52
142 132 127 119 103 92 90 79 63 61 64 54 48 45 42 44 49 52 67 62 62 65 76 88 87 88 86 82 77 76 70 70 69 68 69 72 63 57 54 53 53 51 51
145 138 131 123 112 94 82 71 66 60 62 56 49 44 48 46 48 54 60 66 66 75 87 86 87 88 91 90 83 76 71 66 67 65 62 59 64 62 55 53 52 49 47
149 142 136 136 123 103 88 78 72 67 63 57 52 44 45 48 50 53 57 65 72 82 90 94 93 96 93 87 82 76 76 73 67 65 63 61 54 56 59 54 51 49 46
155 149 146 141 131 118 104 93 79 77 66 57 52 47 43 47 48 58 54 57 78 88 92 96 92 94 95 92 87 77 71 67 62 61 61 58 56 55 58 61 56 50 44
162 158 149 145 146 131 124 109 97 81 72 63 58 53 43 43 46 57 65 65 77 94 95 97 102 99 98 97 90 79 70 68 62 56 58 59 56 54 52 51 53 55 49
170 170 160 162 157 151 138 127 109 90 79 72 62 53 51 48 49 56 58 65 67 87 95 109 113 114 109 109 105 95 82 68 61 56 55 58 58 55 53 50 46 44 48
176 177 171 167 165 159 140 121 109 96 85 76 71 62 51 52 52 56 59 72 78 91 97 105 118 121 118 117 120 125 116 95 65 55 57 55 55 56 52 48 46 44 41
182 181 178 172 166 163 151 134 127 119 118 102 83 66 52 54 57 55 56 64 73 95 100 100 116 125 122 93 43 14 72 88 99 65 54 55 52 49 49 46 44 41 42
186 184 185 178 171 164 163 161 149 133 107 91 83 80 77 63 60 57 60 61 67 73 91 99 89 104 128 114 80 39 42 85 120 107 75 60 54 48 43 42 41 41 41
183 183 183 177 175 172 171 159 163 135 114 113 105 94 83 74 64 63 59 62 66 71 73 73 71 71 88 74 77 91 90 96 85 107 100 82 65 50 45 40 40 39 41
182 180 179 178 175 174 175 170 172 145 140 134 122 106 98 90 77 70 65 68 70 71 72 71 76 77 72 71 71 81 97 100 100 100 111 102 77 58 53 44 40 39 41
Height
1547 1547 1546 1546 1547 1547 1547 1546 1546 1546 1546 1546 1546 1545 1545 1545 1545 1545 1544 1544 1544 1544 1544 1543 1543 1543 1543 1543 1543 1543 1543 1543 1543 1543 1543 1543 1543 1543 1543 1542 1542 1543 1542
1548 1548 1547 1548 1548 1548 1548 1548 1548 1548 1547 1547 1547 1546 1546 1546 1546 1545 1545 1545 1545 1544 1544 1544 1544 1544 1544 1544 1544 1544 1544 1544 1544 1544 1544 1544 1544 1544 1543 1543 1543 1543 1543
1549 1549 1549 1549 1549 1549 1549 1549 1549 1549 1548 1548 1548 1547 1547 1547 1546 1546 1546 1545 1545 1545 1545 1545 1545 1545 1544 1544 1544 1544 1544 1544 1544 1545 1545 1546 1545 1545 1544 1544 1544 1544 1544
1551 1551 1551 1550 1551 1551 1550 1550 1550 1550 1550 1549 1549 1548 1548 1547 1547 1547 1546 1546 1546 1545 1545 1545 1545 1545 1545 1545 1545 1545 1545 1545 1545 1545 1547 1547 1547 1545 1545 1545 1545 1544 1544
1552 1553 1552 1552 1552 1552 1552 1552 1552 1551 1551 1550 1550 1549 1549 1548 1548 1547 1547 1546 1546 1546 1546 1546 1546 1546 1545 1546 1545 1546 1546 1546 1546 1547 1547 1547 1547 1546 1546 1546 1545 1545 1545
1554 1554 1554 1553 1554 1554 1553 1553 1553 1552 1552 1551 1551 1550 1550 1549 1549 1548 1548 1547 1547 1547 1546 1546 1546 1546 1546 1546 1546 1546 1546 1546 1547 1548 1548 1548 1548 1547 1547 1546 1546 1546 1546
1556 1556 1556 1555 1555 1555 1555 1555 1554 1554 1554 1553 1552 1552 1551 1550 1550 1549 1549 1548 1548 1547 1547 1547 1547 1547 1546 1546 1546 1547 1547 1547 1548 1548 1548 1548 1548 1547 1547 1547 1547 1547 1547
1557 1558 1557 1557 1557 1557 1557 1556 1556 1555 1555 1554 1554 1553 1552 1552 1551 1550 1550 1549 1549 1548 1548 1548 1547 1547 1547 1547 1547 1547 1547 1548 1549 1550 1549 1549 1549 1548 1548 1548 1548 1548 1547
1558 1559 1559 1560 1559 1559 1558 1558 1558 1557 1556 1556 1555 1554 1554 1553 1552 1552 1551 1550 1550 1549 1549 1548 1548 1548 1548 1548 1548 1548 1548 1548 1550 1551 1551 1550 1549 1549 1549 1549 1548 1548 1548
1560 1561 1561 1561 1562 1562 1561 1560 1559 1558 1558 1557 1556 1556 1555 1554 1554 1553 1552 1551 1551 1550 1550 1550 1549 1549 1549 1549 1549 1549 1549 1550 1551 1552 1552 1551 1550 1550 1550 1549 1549 1548 1547
1562 1562 1563 1563 1563 1563 1563 1561 1561 1560 1559 1559 1558 1557 1556 1557 1556 1555 1554 1553 1552 1552 1551 1551 1551 1550 1550 1550 1550 1550 1551 1552 1552 1553 1552 1551 1551 1551 1550 1550 1549 1548 1546
1563 1564 1564 1564 1564 1564 1564 1563 1563 1562 1561 1561 1560 1559 1558 1557 1557 1556 1555 1554 1554 1553 1552 1552 1552 1552 1552 1553 1552 1552 1553 1553 1554 1554 1553 1552 1552 1551 1551 1550 1550 1548 1546
1564 1565 1565 1566 1566 1566 1565 1565 1564 1563 1562 1562 1561 1560 1559 1559 1558 1558 1557 1556 1556 1555 1555 1554 1554 1555 1554 1554 1554 1554 1554 1555 1555 1555 1554 1553 1553 1552 1552 1551 1551 1549 1546
1565 1566 1566 1567 1567 1567 1567 1566 1565 1565 1564 1564 1563 1562 1561 1560 1560 1559 1558 1557 1557 1556 1556 1556 1556 1556 1556 1556 1556 1556 1556 1556 1557 1556 1555 1555 1554 1554 1553 1553 1552 1551 1549
1566 1567 1568 1568 1569 1568 1567 1567 1567 1566 1566 1565 1563 1563 1562 1562 1561 1560 1559 1558 1558 1558 1558 1558 1558 1558 1558 1558 1558 1558 1558 1558 1558 1558 1557 1556 1555 1555 1554 1554 1553 1552 1551
1567 1568 1569 1569 1569 1569 1569 1569 1568 1568 1566 1566 1565 1565 1564 1563 1562 1561 1561 1560 1560 1559 1559 1559 1559 1559 1560 1560 1560 1560 1560 1560 1560 1559 1559 1558 1557 1556 1556 1555 1555 1554 1553
1568 1569 1570 1570 1570 1570 1570 1570 1569 1569 1569 1568 1566 1566 1565 1564 1564 1563 1563 1562 1561 1561 1561 1561 1561 1561 1561 1561 1561 1561 1561 1561 1561 1561 1560 1560 1559 1558 1557 1557 1556 1556 1555
1569 1570 1570 1571 1571 1571 1571 1571 1571 1570 1570 1569 1568 1567 1567 1566 1565 1564 1564 1563 1563 1563 1563 1563 1563 1563 1563 1563 1563 1563 1563 1563 1563 1563 1562 1562 1561 1560 1559 1559 1558 1557 1556
1570 1571 1571 1572 1572 1572 1572 1572 1571 1571 1570 1570 1569 1569 1568 1567 1566 1566 1565 1564 1564 1564 1564 1565 1564 1565 1565 1565 1565 1565 1565 1565 1565 1565 1564 1564 1563 1562 1561 1561 1560 1559 1558
1570 1571 1572 1572 1573 1573 1573 1573 1573 1573 1572 1571 1570 1570 1569 1568 1568 1567 1566 1566 1566 1566 1566 1566 1566 1566 1566 1566 1567 1567 1567 1567 1567 1566 1566 1565 1565 1564 1563 1562 1562 1561 1559
1570 1572 1572 1573 1574 1574 1574 1575 1575 1574 1574 1573 1572 1571 1570 1569 1569 1568 1568 1567 1567 1567 1567 1568 1567 1568 1568 1568 1569 1569 1569 1569 1569 1568 1568 1568 1567 1566 1565 1565 1564 1563 1561
1570 1572 1573 1574 1574 1575 1575 1575 1575 1575 1575 1574 1573 1572 1571 1571 1570 1570 1570 1569 1569 1568 1568 1569 1569 1569 1569 1570 1571 1571 1571 1572 1571 1571 1570 1569 1569 1568 1568 1567 1565 1564 1563
1569 1571 1573 1574 1574 1575 1575 1575 1575 1575 1576 1575 1575 1574 1573 1572 1571 1571 1571 1571 1570 1570 1570 1570 1570 1570 1571 1571 1572 1572 1572 1572 1573 1573 1572 1572 1571 1570 1569 1568 1567 1566 1564
1568 1570 1572 1573 1574 1575 1575 1576 1577 1577 1577 1577 1576 1575 1575 1574 1573 1573 1572 1572 1572 1572 1571 1572 1572 1572 1572 1572 1572 1572 1573 1573 1574 1574 1575 1573 1573 1572 1571 1570 1569 1567 1566
1567 1569 1571 1573 1574 1575 1576 1576 1577 1578 1578 1577 1577 1577 1577 1576 1575 1574 1574 1574 1573 1573 1573 1573 1572 1573 1573 1573 1574 1573 1573 1573 1574 1575 1575 1576 1575 1574 1572 1571 1570 1569 1567
1566 1568 1570 1572 1573 1575 1576 1577 1577 1578 1578 1578 1578 1578 1578 1577 1577 1576 1576 1575 1575 1575 1574 1574 1574 1574 1574 1574 1574 1574 1575 1575 1575 1576 1576 1576 1576 1575 1574 1573 1572 1570 1569